Location: Cantaing
(50.1487°N, 3.1675°E)
Time: 10:43:51
(UTC+00:00)

ARIANE 6 FM1 Upper Stage - Pass Details

Date: 14 January 2026
Orbit: 522 x 609 km, 62.0° (Epoch: 11 February)

Event Time Altitude Azimuth Distance (km) Brightness Sun altitude
Exits shadow 05:13:52 37° 183° (S) 827 3.5 -22.9°
Drops below altitude 10° 05:16:38 10° 156° (SSE) 1,780 5.6 -22.4°
Sets 05:18:53 0° 151° (SSE) 2,678 6.6 -22.1°
